Weather History for KCNM - November, 2011

Change the Weather History Date:

Wednesday, November 2, 2011

  Actual Average Record
Temperature  
Mean Temperature 57 °F -  
Max Temperature 75 °F 67 °F 84 °F (2003)
Min Temperature 37 °F 39 °F 24 °F (1989)
Degree Days  
Heating Degree Days 8    
Growing Degree Days 7 (Base 50)    
Moisture  
Dew Point 25 °F    
Average Humidity 31    
Maximum Humidity 55    
Minimum Humidity 14    
Precipitation  
Precipitation 0.00 in - - ()
Sea Level Pressure  
Sea Level Pressure 30.05 in    
Wind  
Wind Speed 12 mph (NNE)    
Max Wind Speed 32 mph    
Max Gust Speed 43 mph    
Visibility 10 miles    
Events      
Averages and records for this station are not official NWS values.
T = Trace of Precipitation, MM = Missing Value Source: NWS Daily Summary

Daily Weather History Graph

Daily Weather History Graph

Search for Another Location

Airport or City:

Trip Planner

Search our weather history database for the weather conditions in past years. The results will help you decide how hot, cold, wet, or windy it might be!

Date:

Astronomy

Nov. 02, 2011 Rise Set
Actual Time 7:14 AM MDT 6:05 PM MDT
Civil Twilight 6:49 AM MDT 6:31 PM MDT
Nautical Twilight 6:20 AM MDT 7:00 PM MDT
Astronomical Twilight 5:51 AM MDT 7:29 PM MDT
Moon 1:36 PM MDT (11/2) No Moon Set
Length of Visible Light 11h 41m
Length of Day
10h 51m
Waxing Crescent, 51% of the Moon is Illuminated
Nov 2
Waxing Crescent
Nov 10
Full
Nov 18
Last Quarter
Nov 24
New
Dec 2
First Quarter

Hourly Weather History & Observations

Time (MDT) Temp. Windchill Dew Point Humidity Pressure Visibility Wind Dir Wind Speed Gust Speed Precip Events Conditions
12:53 AM 53.1 °F - 33.1 °F 47% 29.75 in 10.0 mi SSE 6.9 mph - N/A   Clear
1:53 AM 52.0 °F - 33.1 °F 49% 29.75 in 10.0 mi South 6.9 mph - N/A   Clear
2:53 AM 55.0 °F - 32.0 °F 42% 29.73 in 10.0 mi SSW 8.1 mph - N/A   Clear
3:53 AM 66.9 °F - 25.0 °F 21% 29.71 in 10.0 mi South 8.1 mph - N/A   Clear
4:53 AM 70.0 °F - 23.0 °F 17% 29.72 in 10.0 mi SSW 11.5 mph 26.5 mph N/A   Clear
5:53 AM 61.0 °F - 25.0 °F 25% 29.73 in 10.0 mi SSW 10.4 mph - N/A   Clear
6:53 AM 64.9 °F - 24.1 °F 21% 29.77 in 10.0 mi WSW 6.9 mph - N/A   Clear
7:53 AM 55.9 °F - 35.1 °F 45% 29.83 in 10.0 mi Calm Calm - N/A   Clear
8:53 AM 66.9 °F - 36.0 °F 32% 29.86 in 10.0 mi NE 8.1 mph - N/A   Clear
9:34 AM 75.2 °F - 23.0 °F 14% 30.01 in 10.0 mi NNW 12.7 mph - N/A   Clear
9:46 AM 75.2 °F - 23.0 °F 14% 30.02 in 10.0 mi North 19.6 mph 24.2 mph N/A   Clear
9:53 AM 75.0 °F - 23.0 °F 14% 29.91 in 10.0 mi NNW 20.7 mph 25.3 mph N/A   Clear
10:53 AM 66.9 °F - 21.9 °F 18% 30.00 in 10.0 mi North 32.2 mph 42.6 mph N/A   Clear
11:53 AM 64.0 °F - 30.0 °F 28% 30.07 in 10.0 mi North 29.9 mph 40.3 mph N/A   Clear
12:53 PM 64.0 °F - 26.1 °F 24% 30.10 in 10.0 mi North 24.2 mph 34.5 mph N/A   Clear
1:53 PM 64.9 °F - 21.9 °F 19% 30.10 in 10.0 mi North 26.5 mph 33.4 mph N/A   Clear
2:53 PM 61.0 °F - 26.1 °F 26% 30.16 in 10.0 mi North 26.5 mph 34.5 mph N/A   Clear
3:53 PM 59.0 °F - 24.1 °F 26% 30.18 in 10.0 mi North 26.5 mph 34.5 mph N/A   Clear
4:53 PM 57.0 °F - 23.0 °F 27% 30.21 in 10.0 mi North 23.0 mph 32.2 mph N/A   Clear
5:53 PM 53.1 °F - 21.0 °F 29% 30.29 in 10.0 mi NNE 21.9 mph 27.6 mph N/A   Clear
6:53 PM 51.1 °F - 21.0 °F 31% 30.32 in 10.0 mi NNE 17.3 mph - N/A   Clear
7:53 PM 48.0 °F - 21.0 °F 34% 30.38 in 10.0 mi NE 13.8 mph - N/A   Clear
8:53 PM 44.6 °F 40.7 °F 21.2 °F 39% 30.47 in 10.0 mi NE 6.9 mph - N/A   Clear
9:53 PM 41.0 °F 35.8 °F 23.0 °F 49% 30.42 in 10.0 mi ENE 8.1 mph - N/A   Clear
10:53 PM 39.9 °F 34.5 °F 23.0 °F 51% 30.45 in 10.0 mi NE 8.1 mph - N/A   Clear
11:53 PM 37.9 °F 34.4 °F 23.0 °F 55% 30.46 in 10.0 mi ENE 4.6 mph - N/A   Clear